Printer-friendly version

IAU Minor Planet Center

Minor Planet Center

MPEC 2004-T05 : 1999 VQ11

The following Minor Planet Electronic Circular may be linked-to from your own Web pages, but must not otherwise be redistributed electronically.


Read MPEC 2004-T04 Read MPEC 2004-T06


M.P.E.C. 2004-T05                                Issued 2004 Oct. 4, 13:52 UT

     The Minor Planet Electronic Circulars contain information on unusual
         minor planets and routine data on comets.  They are published
   on behalf of Commission 20 of the International Astronomical Union by the
          Minor Planet Center, Smithsonian Astrophysical Observatory,
                          Cambridge, MA 02138, U.S.A.

                  Supported in part by the Brinson Foundation
             Prepared using the Tamkin Foundation Computer Network

                              MPC@CFA.HARVARD.EDU
          URL http://cfa-www.harvard.edu/iau/mpc.html  ISSN 1523-6714

                                   1999 VQ11

                           Revision to MPEC 1999-V37

Additional Observations:
     J99V11Q 5C2004 10 02.47049 08 32 34.34 +25 22 39.9          21.0 R ET005673
     J99V11Q 5C2004 10 02.48600 08 32 36.63 +25 22 35.8                 ET005673
     J99V11Q 5C2004 10 02.50440 08 32 39.27 +25 22 32.1                 ET005673
     J99V11Q 5C2004 10 02.52581 08 32 42.44 +25 22 26.3                 ET005673
     J99V11Q 5C2004 10 04.50637 08 37 30.36 +25 14 38.3          21.0 R ET005673
     J99V11Q 5C2004 10 04.51331 08 37 31.26 +25 14 36.5                 ET005673
     J99V11Q 5C2004 10 04.52975 08 37 33.59 +25 14 33.7                 ET005673
     J99V11Q 5C2004 10 04.53299 08 37 34.10 +25 14 32.3                 ET005673

Observer details:
673 Table Mountain Observatory, Wrightwood.  Observer J. Young.  0.6-m
    reflector + CCD.

First and last observations above in comparison with prediction:
Residuals in seconds of arc (or two decimals in degrees), reference and Delta-T
041002 673 0.07- 0.01+    041004 673 0.06- 0.02+    MPC 39552   +0.22 day

Orbital elements:
1999 VQ11
Epoch 2004 July 14.0 TT = JDT 2453200.5                 MPC
M 359.18781              (2000.0)            P               Q
n   0.20897145     Peri.  352.94787     +0.93969364     -0.33624457
a   2.8124064      Node    26.96253     +0.32014922     +0.80039416
e   0.5944382      Incl.    7.93256     +0.12033431     +0.49629504
P   4.72           H   17.6           G   0.15           U   1
Residuals in seconds of arc
991108 704  1.3-  0.7+    991111 719 (3.3+  3.4+)   991208 402  0.4+  0.1+
991108 704  0.1+  0.2+    991111 719 (2.3+  0.4-)   991208 402  0.2-  0.7-
991108 704  0.7-  0.8+    991113 402  0.4-  0.1+    991208 402  0.6+  0.3-
991108 704  0.3-  0.5+    991113 402  0.1+  0.1+    991211 118  0.3-  0.3+
991110 704  0.2+  0.1-    991113 402  0.2-  0.2+    991211 118  0.2+  0.0
991110 704  0.2-  0.0     991114 704  0.4+  0.2+    000102 046  0.7+  0.2+
991110 853  0.1+  0.6+    991114 704  0.4+  0.2+    000102 046  0.1-  0.6+
991110 853  0.2-  0.6+    991114 704  0.6+  0.3+    000102 046  0.0   0.1+
991110 853  0.0   0.5+    991114 704  1.1+  0.2-    000102 046  0.1-  0.1-
991110 704  0.0   0.1-    991114 853  0.3-  0.2+    000105 118  0.3-  0.8-
991110 670  0.0   0.2-    991114 853  0.5-  0.0     000105 118  0.6-  0.3-
991110 704  0.3-  0.1-    991119 402  0.7+  0.6+    000105 118  0.2-  0.3+
991110 670  0.9+  0.6-    991119 402  0.3+  0.5+    000107 699  0.4-  0.4-
991110 670  1.0-  0.9-    991119 402  0.0   0.1-    000107 699  0.9-  0.4+
991110 704  0.6-  0.1+    991126 046  0.3-  0.1+    000107 699  1.6-  0.0
991110 719  1.8+  0.8+    991126 046  0.2-  0.2-    000110 360  0.2+  0.7-
991110 670  0.3+  1.4-    991126 046  0.3-  0.1+    000110 360  0.3+  0.3-
991110 719  1.6-  1.6-    991126 046  0.1+  0.0     000110 360  0.5+  0.5-
991110 719  0.4-  0.4+    991127 587  0.1+  0.5+    000209 413  0.1-  0.0
991110 651  0.4+  0.7-    991127 587  0.1-  0.2+    000209 413  0.2+  0.1+
991110 670 (1.4-  2.2-)   991203 360  0.3-  0.1+    000224 413  0.8+  0.3-
991110 651  1.0+  0.5-    991203 360  0.0   0.1+    000224 413  0.3+  0.2+
991110 651  0.6+  0.6-    991203 360  0.3-  0.0     000224 413  0.1-  0.0
991110 402  0.4+  0.4+    991206 704  1.0+  0.1+    000224 413  0.6-  0.5+
991110 402  0.4+  0.2+    991206 704  1.4+  0.4+    000226 413  0.7+  0.1+
991110 402  0.0   0.0     991206 704  0.7+  0.2+    000226 413  0.6+  0.8-
991110 402  0.3+  0.4+    991206 704  0.1-  0.2-    041002 673  0.0   0.5+
991110 595  1.1-  0.0     991206 704  0.7+  0.0     041002 673  0.3+  0.1-
991110 595  1.2+  0.2-    991206 704  0.2-  0.3-    041002 673  0.4-  0.3+
991110 595  0.8-  1.6-    991206 704  0.6+  0.1+    041002 673  0.3+  0.7-
991111 719  0.4+  0.8-    991206 704  0.1-  0.0     041004 673  0.6+  0.4-
991111 719  0.5-  0.1-    991206 704  0.0   0.0     041004 673  0.5-  0.6-
991111 853  0.3-  0.2+    991208 699  1.6-  0.3-    041004 673  0.6-  0.4+
991111 853  0.3-  0.1+    991208 699  0.9-  0.2+    041004 673  0.1+  0.3-
991111 853  0.2-  0.1+    991208 699  0.8-  1.4+

Ephemeris:
1999 VQ11                a,e,i = 2.81, 0.59, 8                   q = 1.1406
Date    TT    R. A. (2000) Decl.     Delta      r     Elong.  Phase     V
2004 10 02    08 31.41   +25 24.5    1.556    1.457    65.3    38.6    20.9
2004 10 12    08 54.59   +24 44.7    1.549    1.528    69.9    37.8    21.0
2004 10 22    09 14.74   +24 06.9    1.533    1.601    75.2    37.0    21.0
2004 11 01    09 31.82   +23 36.2    1.509    1.675    81.3    35.8    21.1
2004 11 11    09 45.72   +23 17.0    1.478    1.751    88.1    34.4    21.1
2004 11 21    09 56.20   +23 13.3    1.441    1.826    95.7    32.6    21.1
2004 12 01    10 03.01   +23 27.8    1.402    1.902   104.2    30.2    21.0
2004 12 11    10 05.82   +24 02.2    1.364    1.977   113.7    27.1    21.0
2004 12 21    10 04.34   +24 55.3    1.332    2.052   124.2    23.4    20.9
2004 12 31    09 58.53   +26 02.8    1.311    2.126   135.4    18.9    20.8
2005 01 10    09 48.71   +27 16.2    1.307    2.199   147.2    14.0    20.7
2005 01 20    09 35.83   +28 24.4    1.327    2.271   158.5     9.1    20.6
2005 01 30    09 21.48   +29 16.5    1.373    2.342   166.4     5.7    20.6
2005 02 09    09 07.48   +29 45.8    1.448    2.412   164.0     6.5    20.8
2005 02 19    08 55.48   +29 51.2    1.550    2.480   154.7     9.8    21.2
2005 03 01    08 46.54   +29 35.9    1.678    2.547   144.1    13.2    21.5
2005 03 11    08 41.03   +29 05.4    1.826    2.613   133.7    16.0    21.9

Timothy B. Spahr             (C) Copyright 2004 MPC           M.P.E.C. 2004-T05

Read MPEC 2004-T04 Read MPEC 2004-T06


Our Web policy. Index to the CBAT/MPC/ICQ pages.


Valid HTML 4.01!